Regional Weather Roundup
Issued by NWS

Home | Current Version | Previous Version | Graphics & Text | Print | Product List | Glossary On
Versions: 1 2 3 4 5 6 7 8 9 10 11 12 13 14 15 16 17 18 19 20 21 22 23 24 25 26 27 28 29 30 31 32 33 34 35 36 37 38 39 40 41 42 43 44 45 46 47 48 49 50
000
ASUS43 KOAX 171510
RWRNE

WEATHER ROUNDUP FOR NEBRASKA
NATIONAL WEATHER SERVICE OMAHA NE
1000 AM CDT WED SEP 17 2014

NOTES: SATELLITE DATA IS BEING USED TO AUGMENT CLOUD COVER ABOVE
       12000 FEET.
       "FAIR" INDICATES FEW OR NO CLOUDS BELOW 12,000 FEET WITH NO
       SIGNIFICANT WEATHER AND/OR OBSTRUCTIONS TO VISIBILITY.

  * THESE STATIONS DO NOT REPORT WEATHER SUCH AS RAIN...SNOW OR FOG.

NEZ001>004-019>022-054>056-171600-
NEBRASKA PANHANDLE

CITY           SKY/WX    TMP DP  RH WIND       PRES   REMARKS
SCOTTSBLUFF    FAIR      64  49  57 NW10      30.01S
ALLIANCE       FAIR      62  48  60 NW6       29.99S
CHADRON        FAIR      62  50  64 W5        29.98R
SIDNEY         FAIR      66  44  45 NW12      30.03R
$$

NEZ057>060-069>072-079>082-171600-
SOUTHWEST NEBRASKA

CITY           SKY/WX    TMP DP  RH WIND       PRES   REMARKS
NORTH PLATTE   FOG       55  54  96 CALM      29.95S VSB<1/4
IMPERIAL       FAIR      64  54  69 CALM      29.97F
MCCOOK         FOG       55  54  96 W6        29.97R VSB 1/2
OGALLALA       FAIR      59  56  91 CALM      29.97S
$$

NEZ005>010-023>029-035>040-094-171600-
NORTH CENTRAL NEBRASKA

CITY           SKY/WX    TMP DP  RH WIND       PRES   REMARKS
VALENTINE      FAIR      64  55  72 CALM      29.94R
BROKEN BOW     FAIR      65  60  84 CALM      29.93F
O`NEILL        FAIR      62  60  94 CALM      29.93S
ORD            FAIR      59  56  89 CALM      29.93S
THEDFORD       FAIR      63  62  97 CALM      29.95S
$$

NEZ041-046>049-061>064-073>077-083>087-171600-
SOUTH CENTRAL NEBRASKA

CITY           SKY/WX    TMP DP  RH WIND       PRES   REMARKS
GRAND ISLAND   FAIR      62  53  72 VRB3      29.95R
HASTINGS       FAIR      62  53  72 NE6       29.93S
HEBRON         CLOUDY    63  61  94 CALM      29.93S FOG
HOLDREGE       FAIR      60  55  83 CALM      29.93S
KEARNEY *      FAIR      59  55  88 NE5       29.94S
$$

NEZ011>018-030>034-042>045-171600-
NORTHEAST NEBRASKA

CITY           SKY/WX    TMP DP  RH WIND       PRES   REMARKS
NORFOLK        FAIR      63  55  75 VRB3      29.93S
ALBION         FAIR      59  53  79 CALM      29.94S
COLUMBUS *     FAIR      63  54  72 CALM      29.94F
TEKAMAH        FAIR      65  56  72 S5        29.94R
WAYNE          FAIR      62  55  78 CALM      29.94S
$$

NEZ050>053-065>068-078-088>093-171600-
SOUTHEAST NEBRASKA

CITY           SKY/WX    TMP DP  RH WIND       PRES   REMARKS
LINCOLN        CLOUDY    61  58  90 CALM      29.94S FOG
OMAHA EPPLEY   FAIR      65  56  72 S3        29.93F
BEATRICE       CLOUDY    64  62  94 CALM      29.94R FOG
FALLS CITY     CLOUDY    64  62  93 E5        29.94R FOG
NEBRASKA CITY  CLOUDY    63  57  80 SE6       29.95R
PLATTSMOUTH    FAIR      65  57  75 SE5       29.94R
$$

NEZ044-045-051>053-067-171600-
OMAHA AREA

CITY           SKY/WX    TMP DP  RH WIND       PRES   REMARKS
OMAHA EPPLEY   FAIR      65  56  72 S3        29.93F
OFFUTT AFB     FAIR      66  63  91 SE5       29.93S
PLATTSMOUTH    FAIR      65  57  75 SE5       29.94R
WAHOO          FAIR      65  56  74 CALM      29.93S
$$



USA.gov is the U.S. government's official web portal to all federal, state and local government web resources and services.